UFO 8 (USA 138)

Last updated on July 19, 2019, 4:11 a.m. UTC

1 25258U 98016A   19199.35301067 -.00000036  00000-0  00000+0 0  9999
2 25258   8.3245  34.1714 0003128  55.5263 144.7496  1.00270887 78245
UTC
Height (km)
Latitude
Longitude
Inclination
Orbital Period
UTC large
Height (km)
Speed (km/s)
/
Latitude / Longitude
Inclination (degrees)
Orbital Period (minutes)
Azimuth
Elevation
Range (km)
Doppler Factor
iOS Compass Heading
iOS Angle

Next 30 passes for location: Hong Kong

Rise time Rise Azimuth (degrees) Set time Set Azimuth (degrees) Duration Max altitude (degrees)

No matching passes for this satellites